Location: ???? ????
(31.2831°N, 45.5190°E)
Time: 08:51:30
(UTC+00:00)

H-2A R/B - Pass Details

Date: 24 February 2021
Orbit: 732 x 837 km, 98.2° (Epoch: 15 April)

Event Time Altitude Azimuth Distance (km) Brightness Sun altitude
Rises 16:33:37 0° 191° (S) 3,312 5.4 -22.4°
Reaches altitude 10° 16:36:11 10° 202° (SSW) 2,399 4.8 -22.9°
Maximum altitude 16:40:51 31° 263° (W) 1,412 4.0 -23.9°
Drops below altitude 10° 16:45:38 10° 325° (NW) 2,447 5.1 -24.9°
Sets 16:48:17 0° 335° (NNW) 3,390 5.7 -25.5°
